Time,TemperatureF,DewpointF,PressureIn,WindDirection,WindDirectionDegrees,WindSpeedMPH,WindSpeedGustMPH,Humidity,HourlyPrecipIn,Conditions,Clouds,dailyrainin,SoftwareType,DateUTC
2013-09-20 00:01:00,76.8,73.6,29.82,ESE,113,0.0,0.0,90,0.00,RA,,0.00,WeatherDisplay:10.37,2013-09-20 05:01:00,
2013-09-20 00:06:00,76.7,73.5,29.82,ESE,113,0.0,0.0,90,0.00,RA,,0.00,WeatherDisplay:10.37,2013-09-20 05:06:00,
2013-09-20 00:11:00,76.7,73.5,29.82,ESE,113,0.0,0.0,90,0.00,CLR,,0.00,WeatherDisplay:10.37,2013-09-20 05:11:00,
2013-09-20 00:16:00,76.6,73.4,29.82,ESE,113,0.0,0.0,90,0.00,CLR,,0.00,WeatherDisplay:10.37,2013-09-20 05:16:00,
2013-09-20 00:21:00,76.5,73.3,29.82,ESE,113,0.0,0.0,90,0.00,CLR,,0.00,WeatherDisplay:10.37,2013-09-20 05:21:00,
2013-09-20 00:26:00,76.4,73.2,29.82,ESE,113,0.0,0.0,90,0.00,CLR,,0.00,WeatherDisplay:10.37,2013-09-20 05:26:00,
2013-09-20 00:31:00,76.4,73.2,29.82,ESE,113,0.0,0.0,90,0.00,CLR,,0.00,WeatherDisplay:10.37,2013-09-20 05:31:00,
2013-09-20 00:36:00,76.3,73.5,29.82,ESE,113,0.0,0.0,91,0.00,CLR,,0.00,WeatherDisplay:10.37,2013-09-20 05:36:00,
2013-09-20 00:41:00,76.2,73.4,29.82,ESE,113,0.0,0.0,91,0.00,CLR,,0.00,WeatherDisplay:10.37,2013-09-20 05:41:00,
2013-09-20 00:46:00,76.2,73.4,29.82,ESE,113,0.0,0.0,91,0.00,CLR,,0.00,WeatherDisplay:10.37,2013-09-20 05:46:00,
2013-09-20 00:51:00,76.1,73.3,29.82,ESE,113,0.0,0.0,91,0.00,CLR,,0.00,WeatherDisplay:10.37,2013-09-20 05:51:00,
2013-09-20 00:56:00,76.1,73.3,29.82,ESE,113,0.0,0.0,91,0.00,CLR,,0.00,WeatherDisplay:10.37,2013-09-20 05:56:00,
2013-09-20 01:01:00,76.1,73.3,29.82,ESE,113,0.0,0.0,91,0.00,CLR,,0.00,WeatherDisplay:10.37,2013-09-20 06:01:00,
2013-09-20 01:06:00,76.0,73.2,29.82,ESE,113,0.0,0.0,91,0.00,CLR,,0.00,WeatherDisplay:10.37,2013-09-20 06:06:00,
2013-09-20 01:11:00,76.0,73.2,29.82,ESE,113,0.0,0.0,91,0.00,CLR,,0.00,WeatherDisplay:10.37,2013-09-20 06:11:00,
2013-09-20 01:16:00,76.0,73.2,29.81,ESE,113,0.0,0.0,91,0.00,CLR,,0.00,WeatherDisplay:10.37,2013-09-20 06:16:00,
2013-09-20 01:21:00,75.9,73.1,29.81,ESE,113,0.0,0.0,91,0.00,CLR,,0.00,WeatherDisplay:10.37,2013-09-20 06:21:00,
2013-09-20 01:26:00,75.9,73.1,29.81,ESE,113,0.0,0.0,91,0.00,CLR,,0.00,WeatherDisplay:10.37,2013-09-20 06:26:00,
2013-09-20 01:31:00,75.8,73.0,29.81,ESE,113,0.0,0.0,91,0.00,CLR,,0.00,WeatherDisplay:10.37,2013-09-20 06:31:00,
2013-09-20 01:36:00,75.8,73.3,29.81,ESE,113,0.0,0.0,92,0.00,CLR,,0.00,WeatherDisplay:10.37,2013-09-20 06:36:00,
2013-09-20 01:41:00,75.8,73.3,29.81,ESE,113,0.0,0.0,92,0.00,CLR,,0.00,WeatherDisplay:10.37,2013-09-20 06:41:00,
2013-09-20 01:46:00,75.8,73.3,29.81,ESE,113,0.0,0.0,92,0.00,CLR,,0.00,WeatherDisplay:10.37,2013-09-20 06:46:00,
2013-09-20 01:51:00,75.8,73.3,29.81,ESE,113,0.0,0.0,92,0.00,CLR,,0.00,WeatherDisplay:10.37,2013-09-20 06:51:00,
2013-09-20 01:56:00,75.7,73.2,29.80,ESE,113,0.0,0.0,92,0.00,CLR,,0.00,WeatherDisplay:10.37,2013-09-20 06:56:00,
2013-09-20 02:01:00,75.7,73.2,29.79,ESE,113,0.0,0.0,92,0.00,CLR,,0.00,WeatherDisplay:10.37,2013-09-20 07:01:00,
2013-09-20 02:06:00,75.6,73.1,29.79,ESE,113,0.0,0.0,92,0.00,CLR,,0.00,WeatherDisplay:10.37,2013-09-20 07:06:00,
2013-09-20 02:11:00,75.5,73.0,29.79,ESE,113,0.0,0.0,92,0.00,CLR,,0.00,WeatherDisplay:10.37,2013-09-20 07:11:00,
2013-09-20 02:16:00,75.5,73.0,29.79,ESE,113,0.0,0.0,92,0.00,CLR,,0.00,WeatherDisplay:10.37,2013-09-20 07:16:00,
2013-09-20 02:21:00,75.4,72.9,29.79,ESE,113,0.0,0.0,92,0.00,CLR,,0.00,WeatherDisplay:10.37,2013-09-20 07:21:00,
2013-09-20 02:26:00,75.4,72.9,29.79,ESE,113,0.0,0.0,92,0.00,CLR,,0.00,WeatherDisplay:10.37,2013-09-20 07:26:00,
2013-09-20 02:31:00,75.4,72.9,29.79,ESE,113,0.0,0.0,92,0.00,CLR,,0.00,WeatherDisplay:10.37,2013-09-20 07:31:00,
2013-09-20 02:36:00,75.4,72.9,29.79,ESE,113,0.0,0.0,92,0.00,CLR,,0.00,WeatherDisplay:10.37,2013-09-20 07:36:00,
2013-09-20 02:41:00,75.5,73.3,29.78,ESE,113,0.0,0.0,93,0.00,CLR,,0.00,WeatherDisplay:10.37,2013-09-20 07:41:00,
2013-09-20 02:46:00,75.5,73.3,29.78,ESE,113,0.0,0.0,93,0.00,CLR,,0.00,WeatherDisplay:10.37,2013-09-20 07:46:00,
2013-09-20 02:51:00,75.5,73.3,29.78,ESE,113,0.0,0.0,93,0.00,CLR,,0.00,WeatherDisplay:10.37,2013-09-20 07:51:00,
2013-09-20 02:56:00,75.5,73.3,29.78,ESE,113,0.0,0.0,93,0.00,CLR,,0.00,WeatherDisplay:10.37,2013-09-20 07:56:00,
2013-09-20 03:01:00,75.5,73.3,29.78,ESE,113,0.0,0.0,93,0.00,CLR,,0.00,WeatherDisplay:10.37,2013-09-20 08:01:00,
2013-09-20 03:06:00,75.5,73.3,29.78,ESE,113,0.0,0.0,93,0.00,CLR,,0.00,WeatherDisplay:10.37,2013-09-20 08:06:00,
2013-09-20 03:11:00,75.5,73.3,29.78,ESE,113,0.0,0.0,93,0.00,CLR,,0.00,WeatherDisplay:10.37,2013-09-20 08:11:00,
2013-09-20 03:16:00,75.5,73.3,29.78,ESE,113,0.0,0.0,93,0.00,CLR,,0.00,WeatherDisplay:10.37,2013-09-20 08:16:00,
2013-09-20 03:21:00,75.5,73.3,29.78,ESE,113,0.0,0.0,93,0.00,CLR,,0.00,WeatherDisplay:10.37,2013-09-20 08:21:00,
2013-09-20 03:26:00,75.5,73.3,29.78,ESE,113,0.0,0.0,93,0.00,CLR,,0.00,WeatherDisplay:10.37,2013-09-20 08:26:00,
2013-09-20 03:31:00,75.5,73.3,29.78,ESE,113,0.0,0.0,93,0.00,CLR,,0.00,WeatherDisplay:10.37,2013-09-20 08:31:00,
2013-09-20 03:36:00,75.5,73.3,29.78,ESE,113,0.0,0.0,93,0.00,CLR,,0.00,WeatherDisplay:10.37,2013-09-20 08:36:00,
2013-09-20 03:41:00,75.5,73.3,29.78,ESE,113,0.0,0.0,93,0.00,CLR,,0.00,WeatherDisplay:10.37,2013-09-20 08:41:00,
2013-09-20 03:46:00,75.5,73.3,29.78,ESE,113,0.0,0.0,93,0.00,CLR,,0.00,WeatherDisplay:10.37,2013-09-20 08:46:00,
2013-09-20 03:51:00,75.6,73.4,29.77,ESE,113,0.0,0.0,93,0.00,CLR,,0.00,WeatherDisplay:10.37,2013-09-20 08:51:00,
2013-09-20 03:56:00,75.6,73.4,29.78,ESE,113,0.0,0.0,93,0.00,CLR,,0.00,WeatherDisplay:10.37,2013-09-20 08:56:00,
2013-09-20 04:01:00,75.6,73.4,29.78,ESE,113,0.0,0.0,93,0.00,CLR,,0.00,WeatherDisplay:10.37,2013-09-20 09:01:00,
2013-09-20 04:06:00,75.6,73.4,29.77,ESE,113,0.0,0.0,93,0.00,CLR,,0.00,WeatherDisplay:10.37,2013-09-20 09:06:00,
2013-09-20 04:11:00,75.7,73.5,29.77,ESE,113,0.0,0.0,93,0.02,RA,,0.02,WeatherDisplay:10.37,2013-09-20 09:11:00,
2013-09-20 04:16:00,75.7,73.5,29.77,ESE,113,0.0,0.0,93,0.02,RA,,0.02,WeatherDisplay:10.37,2013-09-20 09:16:00,
2013-09-20 04:21:00,75.8,73.6,29.77,ESE,113,0.0,0.0,93,0.02,,,0.03,WeatherDisplay:10.37,2013-09-20 09:21:00,
2013-09-20 04:26:00,75.8,73.6,29.77,ESE,113,0.0,0.0,93,0.07,RA,,0.07,WeatherDisplay:10.37,2013-09-20 09:26:00,
2013-09-20 04:31:00,75.8,73.6,29.76,ESE,113,0.0,0.0,93,0.08,RA,,0.08,WeatherDisplay:10.37,2013-09-20 09:31:00,
2013-09-20 04:36:00,75.7,73.5,29.77,ESE,113,0.0,0.0,93,0.08,RA,,0.08,WeatherDisplay:10.37,2013-09-20 09:36:00,
2013-09-20 04:41:00,75.7,73.8,29.76,ESE,113,0.0,0.0,94,0.08,,,0.08,WeatherDisplay:10.37,2013-09-20 09:41:00,
2013-09-20 04:46:00,75.7,73.8,29.76,ESE,113,1.2,0.0,94,0.08,CLR,,0.08,WeatherDisplay:10.37,2013-09-20 09:46:00,
2013-09-20 04:51:00,75.6,73.8,29.76,ESE,113,3.5,0.0,94,0.08,CLR,,0.08,WeatherDisplay:10.37,2013-09-20 09:51:00,
2013-09-20 04:56:00,75.6,73.8,29.75,ESE,113,0.0,0.0,94,0.08,CLR,,0.08,WeatherDisplay:10.37,2013-09-20 09:56:00,
2013-09-20 05:01:00,75.5,73.7,29.75,ESE,113,0.0,0.0,94,0.08,CLR,,0.08,WeatherDisplay:10.37,2013-09-20 10:01:00,
2013-09-20 05:06:00,75.5,73.7,29.75,ESE,113,0.0,0.0,94,0.08,CLR,,0.08,WeatherDisplay:10.37,2013-09-20 10:06:00,
2013-09-20 05:11:00,75.5,73.7,29.75,ESE,113,0.0,0.0,94,0.06,CLR,,0.08,WeatherDisplay:10.37,2013-09-20 10:11:00,
2013-09-20 05:17:00,75.4,73.6,29.75,ESE,113,0.0,0.0,94,0.06,CLR,,0.08,WeatherDisplay:10.37,2013-09-20 10:17:00,
2013-09-20 05:22:00,75.4,73.6,29.75,ESE,113,0.0,0.0,94,0.05,CLR,,0.08,WeatherDisplay:10.37,2013-09-20 10:22:00,
2013-09-20 05:27:00,75.4,73.6,29.75,ESE,113,0.0,0.0,94,0.01,CLR,,0.08,WeatherDisplay:10.37,2013-09-20 10:27:00,
2013-09-20 05:32:00,75.4,73.6,29.75,ESE,113,0.0,0.0,94,0.00,CLR,,0.08,WeatherDisplay:10.37,2013-09-20 10:32:00,
2013-09-20 05:37:00,75.4,73.6,29.75,ESE,113,0.0,0.0,94,0.00,CLR,,0.08,WeatherDisplay:10.37,2013-09-20 10:37:00,
2013-09-20 05:42:00,75.4,73.6,29.75,ESE,113,0.0,0.0,94,0.06,RA,,0.14,WeatherDisplay:10.37,2013-09-20 10:42:00,
2013-09-20 05:47:00,75.4,73.6,29.75,ESE,113,3.5,3.5,94,0.09,RA,,0.17,WeatherDisplay:10.37,2013-09-20 10:47:00,
2013-09-20 05:52:00,75.4,73.6,29.75,ESE,113,0.0,0.0,94,0.14,RA,,0.22,WeatherDisplay:10.37,2013-09-20 10:52:00,
2013-09-20 05:57:00,75.4,73.6,29.75,ESE,113,0.0,0.0,94,0.15,RA,,0.23,WeatherDisplay:10.37,2013-09-20 10:57:00,
2013-09-20 06:02:00,75.4,73.6,29.75,ESE,113,0.0,0.0,94,0.15,RA,,0.23,WeatherDisplay:10.37,2013-09-20 11:02:00,
2013-09-20 06:07:00,75.3,73.5,29.75,ESE,113,0.0,0.0,94,0.15,CLR,,0.23,WeatherDisplay:10.37,2013-09-20 11:07:00,
2013-09-20 06:12:00,75.3,73.5,29.75,ESE,113,0.0,0.0,94,0.15,CLR,,0.23,WeatherDisplay:10.37,2013-09-20 11:12:00,
2013-09-20 06:17:00,75.2,73.4,29.75,ESE,113,0.0,0.0,94,0.15,CLR,,0.23,WeatherDisplay:10.37,2013-09-20 11:17:00,
2013-09-20 06:22:00,75.2,73.4,29.75,ESE,113,0.0,0.0,94,0.15,CLR,,0.23,WeatherDisplay:10.37,2013-09-20 11:22:00,
2013-09-20 06:27:00,75.2,73.4,29.74,ESE,113,0.0,0.0,94,0.15,CLR,,0.23,WeatherDisplay:10.37,2013-09-20 11:27:00,
2013-09-20 06:32:00,75.1,73.3,29.74,ESE,113,0.0,0.0,94,0.15,CLR,,0.23,WeatherDisplay:10.37,2013-09-20 11:32:00,
2013-09-20 06:37:00,75.2,73.4,29.75,ESE,113,0.0,0.0,94,0.15,CLR,,0.23,WeatherDisplay:10.37,2013-09-20 11:37:00,
2013-09-20 06:42:00,75.1,73.3,29.74,ESE,113,0.0,0.0,94,0.09,CLR,,0.23,WeatherDisplay:10.37,2013-09-20 11:42:00,
2013-09-20 06:47:00,75.1,73.3,29.74,ESE,113,0.0,0.0,94,0.06,CLR,,0.23,WeatherDisplay:10.37,2013-09-20 11:47:00,
2013-09-20 06:52:00,75.2,73.4,29.74,ESE,113,0.0,0.0,94,0.01,CLR,,0.23,WeatherDisplay:10.37,2013-09-20 11:52:00,
2013-09-20 06:57:00,75.2,73.4,29.74,ESE,113,0.0,0.0,94,0.00,CLR,,0.23,WeatherDisplay:10.37,2013-09-20 11:57:00,
2013-09-20 07:02:00,75.2,73.4,29.74,ESE,113,0.0,0.0,94,0.00,CLR,,0.23,WeatherDisplay:10.37,2013-09-20 12:02:00,
2013-09-20 07:07:00,75.2,73.4,29.74,ESE,113,0.0,0.0,94,0.00,CLR,,0.23,WeatherDisplay:10.37,2013-09-20 12:07:00,
2013-09-20 07:12:00,75.2,73.7,29.74,ESE,113,0.0,0.0,95,0.00,CLR,,0.23,WeatherDisplay:10.37,2013-09-20 12:12:00,
2013-09-20 07:17:00,75.3,73.8,29.75,ESE,113,0.0,0.0,95,0.00,CLR,,0.23,WeatherDisplay:10.37,2013-09-20 12:17:00,
2013-09-20 07:22:00,75.3,73.8,29.75,ESE,113,0.0,0.0,95,0.00,CLR,,0.23,WeatherDisplay:10.37,2013-09-20 12:22:00,
2013-09-20 07:27:00,75.3,73.8,29.75,ESE,113,0.0,0.0,95,0.00,CLR,,0.23,WeatherDisplay:10.37,2013-09-20 12:27:00,
2013-09-20 07:32:00,75.3,73.8,29.75,ESE,113,0.0,0.0,95,0.00,CLR,,0.23,WeatherDisplay:10.37,2013-09-20 12:32:00,
2013-09-20 07:37:00,75.3,73.8,29.75,ESE,113,0.0,0.0,95,0.01,RA,,0.24,WeatherDisplay:10.37,2013-09-20 12:37:00,
2013-09-20 07:42:00,75.3,73.8,29.75,ESE,113,0.0,0.0,95,0.09,RA,,0.32,WeatherDisplay:10.37,2013-09-20 12:42:00,
2013-09-20 07:47:00,75.3,73.8,29.75,ESE,113,0.0,0.0,95,0.14,RA,,0.37,WeatherDisplay:10.37,2013-09-20 12:47:00,
2013-09-20 07:52:00,75.4,73.9,29.75,ESE,113,0.0,0.0,95,0.14,RA,,0.37,WeatherDisplay:10.37,2013-09-20 12:52:00,
2013-09-20 07:57:00,75.4,73.9,29.75,ESE,113,0.0,0.0,95,0.14,,,0.37,WeatherDisplay:10.37,2013-09-20 12:57:00,
2013-09-20 08:02:00,75.4,73.9,29.76,ESE,113,0.0,0.0,95,0.14,CLR,,0.37,WeatherDisplay:10.37,2013-09-20 13:02:00,
2013-09-20 08:07:00,75.4,73.9,29.76,ESE,113,5.0,5.0,95,0.14,CLR,,0.37,WeatherDisplay:10.37,2013-09-20 13:07:00,
2013-09-20 08:12:00,75.4,73.9,29.76,ESE,113,1.2,1.2,95,0.14,CLR,,0.37,WeatherDisplay:10.37,2013-09-20 13:12:00,
2013-09-20 08:17:00,75.4,73.9,29.76,ESE,113,3.5,3.5,95,0.14,CLR,,0.37,WeatherDisplay:10.37,2013-09-20 13:17:00,
2013-09-20 08:22:00,75.3,73.8,29.76,ESE,113,0.0,0.0,95,0.14,CLR,,0.37,WeatherDisplay:10.37,2013-09-20 13:22:00,
2013-09-20 08:27:00,75.3,73.8,29.76,ESE,113,0.0,0.0,95,0.14,CLR,,0.37,WeatherDisplay:10.37,2013-09-20 13:27:00,
2013-09-20 08:32:00,75.3,73.8,29.76,ESE,113,0.0,0.0,95,0.15,RA,,0.38,WeatherDisplay:10.37,2013-09-20 13:32:00,
2013-09-20 08:37:00,75.3,73.8,29.76,ESE,113,0.0,0.0,95,0.14,RA,,0.38,WeatherDisplay:10.37,2013-09-20 13:37:00,
2013-09-20 08:42:00,75.3,73.8,29.76,ESE,113,0.0,0.0,95,0.07,RA,,0.39,WeatherDisplay:10.37,2013-09-20 13:42:00,
2013-09-20 08:47:00,75.3,73.8,29.77,ESE,113,1.0,0.0,95,0.02,RA,,0.39,WeatherDisplay:10.37,2013-09-20 13:47:00,
2013-09-20 08:52:00,75.3,73.8,29.77,ESE,113,3.5,0.0,95,0.05,RA,,0.41,WeatherDisplay:10.37,2013-09-20 13:52:00,
2013-09-20 08:57:00,75.2,73.7,29.77,ESE,115,5.8,5.8,95,0.06,RA,,0.43,WeatherDisplay:10.37,2013-09-20 13:57:00,
2013-09-20 09:02:00,75.1,73.6,29.76,ESE,115,3.5,3.5,95,0.06,RA,,0.43,WeatherDisplay:10.37,2013-09-20 14:02:00,
2013-09-20 09:07:00,75.1,73.6,29.76,ESE,115,3.5,3.5,95,0.06,CLR,,0.43,WeatherDisplay:10.37,2013-09-20 14:07:00,
2013-09-20 09:12:00,75.4,73.9,29.76,ESE,115,4.0,4.0,95,0.06,CLR,,0.43,WeatherDisplay:10.37,2013-09-20 14:12:00,
2013-09-20 09:17:00,75.7,74.2,29.77,ESE,115,4.0,4.0,95,0.06,CLR,,0.43,WeatherDisplay:10.37,2013-09-20 14:17:00,
2013-09-20 09:22:00,76.1,74.6,29.77,ESE,115,3.5,3.5,95,0.06,CLR,,0.43,WeatherDisplay:10.37,2013-09-20 14:22:00,
2013-09-20 09:27:00,76.1,74.6,29.77,SE,140,6.9,6.9,95,0.06,CLR,,0.43,WeatherDisplay:10.37,2013-09-20 14:27:00,
2013-09-20 09:32:00,76.0,74.5,29.77,SE,143,4.0,4.0,95,0.05,CLR,,0.43,WeatherDisplay:10.37,2013-09-20 14:32:00,
2013-09-20 09:37:00,75.9,74.4,29.77,SE,143,4.0,4.0,95,0.05,CLR,,0.43,WeatherDisplay:10.37,2013-09-20 14:37:00,
2013-09-20 09:42:00,75.9,74.4,29.77,SE,144,3.5,3.5,95,0.03,CLR,,0.43,WeatherDisplay:10.37,2013-09-20 14:42:00,
2013-09-20 09:47:00,75.9,74.4,29.77,SE,144,5.0,5.0,95,0.03,CLR,,0.43,WeatherDisplay:10.37,2013-09-20 14:47:00,
2013-09-20 09:52:00,75.9,74.4,29.77,SE,144,4.6,4.6,95,0.01,CLR,,0.43,WeatherDisplay:10.37,2013-09-20 14:52:00,
2013-09-20 09:57:00,76.0,74.5,29.77,SE,144,0.0,0.0,95,0.01,RA,,0.44,WeatherDisplay:10.37,2013-09-20 14:57:00,
2013-09-20 10:02:00,76.2,74.7,29.77,SE,144,5.0,5.0,95,0.01,RA,,0.44,WeatherDisplay:10.37,2013-09-20 15:02:00,
2013-09-20 10:07:00,76.1,74.6,29.76,SE,144,0.0,0.0,95,0.01,CLR,,0.44,WeatherDisplay:10.37,2013-09-20 15:07:00,
2013-09-20 10:12:00,76.2,74.7,29.76,SE,146,5.8,5.8,95,0.01,CLR,,0.44,WeatherDisplay:10.37,2013-09-20 15:12:00,
2013-09-20 10:17:00,76.2,74.7,29.76,SSE,154,5.0,5.0,95,0.01,CLR,,0.44,WeatherDisplay:10.37,2013-09-20 15:17:00,
2013-09-20 10:22:00,76.3,74.8,29.76,SSE,154,5.8,5.8,95,0.01,CLR,,0.44,WeatherDisplay:10.37,2013-09-20 15:22:00,
2013-09-20 10:27:00,76.6,75.1,29.76,SSE,154,0.0,0.0,95,0.01,CLR,,0.44,WeatherDisplay:10.37,2013-09-20 15:27:00,
2013-09-20 10:32:00,76.8,75.3,29.76,SSE,155,9.2,9.2,95,0.01,CLR,,0.44,WeatherDisplay:10.37,2013-09-20 15:32:00,
2013-09-20 10:37:00,76.9,75.4,29.76,SSE,155,5.8,5.8,95,0.01,CLR,,0.44,WeatherDisplay:10.37,2013-09-20 15:37:00,
2013-09-20 10:42:00,77.3,75.8,29.76,SSE,155,0.0,0.0,95,0.01,CLR,,0.44,WeatherDisplay:10.37,2013-09-20 15:42:00,
2013-09-20 10:47:00,77.5,76.0,29.76,SSE,155,0.0,0.0,95,0.01,CLR,,0.44,WeatherDisplay:10.37,2013-09-20 15:47:00,
2013-09-20 10:52:00,77.0,75.5,29.76,South,171,6.0,6.0,95,0.01,CLR,,0.44,WeatherDisplay:10.37,2013-09-20 15:52:00,
2013-09-20 10:57:00,76.9,75.4,29.76,South,171,3.5,3.5,95,0.00,CLR,,0.44,WeatherDisplay:10.37,2013-09-20 15:57:00,
2013-09-20 11:02:00,77.1,75.6,29.76,South,171,9.2,9.2,95,0.00,CLR,,0.44,WeatherDisplay:10.37,2013-09-20 16:02:00,
2013-09-20 11:07:00,77.1,75.6,29.76,South,171,8.1,8.1,95,0.00,CLR,,0.44,WeatherDisplay:10.37,2013-09-20 16:07:00,
2013-09-20 11:12:00,77.0,75.1,29.76,South,171,9.2,9.2,94,0.00,CLR,,0.44,WeatherDisplay:10.37,2013-09-20 16:12:00,
2013-09-20 11:17:00,76.9,75.0,29.76,South,171,3.5,3.5,94,0.00,CLR,,0.44,WeatherDisplay:10.37,2013-09-20 16:17:00,
2013-09-20 11:22:00,77.0,75.1,29.76,South,171,0.0,0.0,94,0.00,CLR,,0.44,WeatherDisplay:10.37,2013-09-20 16:22:00,
2013-09-20 11:27:00,77.0,75.1,29.76,South,171,0.0,0.0,94,0.00,CLR,,0.44,WeatherDisplay:10.37,2013-09-20 16:27:00,
2013-09-20 11:32:00,77.1,75.2,29.76,South,171,0.0,0.0,94,0.00,CLR,,0.44,WeatherDisplay:10.37,2013-09-20 16:32:00,
2013-09-20 11:37:00,77.0,75.1,29.75,South,171,1.2,1.2,94,0.00,CLR,,0.44,WeatherDisplay:10.37,2013-09-20 16:37:00,
2013-09-20 11:42:00,77.1,75.2,29.76,South,171,0.0,0.0,94,0.00,CLR,,0.44,WeatherDisplay:10.37,2013-09-20 16:42:00,
2013-09-20 11:47:00,77.1,75.2,29.76,South,171,0.0,0.0,94,0.00,CLR,,0.44,WeatherDisplay:10.37,2013-09-20 16:47:00,
2013-09-20 11:52:00,77.1,75.2,29.75,South,171,0.0,0.0,94,0.00,CLR,,0.44,WeatherDisplay:10.37,2013-09-20 16:52:00,
2013-09-20 11:57:00,77.2,75.3,29.75,South,171,0.0,0.0,94,0.00,CLR,,0.44,WeatherDisplay:10.37,2013-09-20 16:57:00,
2013-09-20 12:02:00,77.2,75.3,29.76,South,171,0.0,0.0,94,0.00,CLR,,0.44,WeatherDisplay:10.37,2013-09-20 17:02:00,
2013-09-20 12:07:00,77.2,75.3,29.75,South,171,0.0,0.0,94,0.00,CLR,,0.44,WeatherDisplay:10.37,2013-09-20 17:07:00,
2013-09-20 12:12:00,77.2,75.3,29.75,South,171,2.3,2.3,94,0.00,CLR,,0.44,WeatherDisplay:10.37,2013-09-20 17:12:00,
2013-09-20 12:17:00,77.3,75.1,29.75,South,171,0.0,0.0,93,0.00,CLR,,0.44,WeatherDisplay:10.37,2013-09-20 17:17:00,
2013-09-20 12:22:00,77.3,75.1,29.75,South,171,0.0,0.0,93,0.00,CLR,,0.44,WeatherDisplay:10.37,2013-09-20 17:22:00,
2013-09-20 12:27:00,77.4,75.2,29.75,South,171,0.0,0.0,93,0.00,CLR,,0.44,WeatherDisplay:10.37,2013-09-20 17:27:00,
2013-09-20 12:32:00,77.4,75.2,29.75,South,171,0.0,0.0,93,0.00,CLR,,0.44,WeatherDisplay:10.37,2013-09-20 17:32:00,
2013-09-20 12:37:00,77.5,75.3,29.75,South,171,0.0,0.0,93,0.00,CLR,,0.44,WeatherDisplay:10.37,2013-09-20 17:37:00,
2013-09-20 12:42:00,77.6,75.4,29.75,South,171,0.0,0.0,93,0.00,CLR,,0.44,WeatherDisplay:10.37,2013-09-20 17:42:00,
2013-09-20 12:47:00,77.5,75.3,29.75,South,171,0.0,0.0,93,0.01,RA,,0.45,WeatherDisplay:10.37,2013-09-20 17:47:00,
2013-09-20 12:52:00,77.3,75.1,29.75,South,171,3.0,3.0,93,0.02,RA,,0.46,WeatherDisplay:10.37,2013-09-20 17:52:00,
2013-09-20 12:57:00,77.1,74.9,29.75,SSE,165,0.0,0.0,93,0.04,RA,,0.47,WeatherDisplay:10.37,2013-09-20 17:57:00,
2013-09-20 13:02:00,77.0,74.8,29.75,SSE,164,0.0,0.0,93,0.05,RA,,0.48,WeatherDisplay:10.37,2013-09-20 18:02:00,
2013-09-20 13:07:00,77.1,74.9,29.74,SSE,165,0.0,0.0,93,0.05,RA,,0.48,WeatherDisplay:10.37,2013-09-20 18:07:00,
2013-09-20 13:12:00,77.2,75.0,29.74,SSE,164,0.0,0.0,93,0.05,,,0.48,WeatherDisplay:10.37,2013-09-20 18:12:00,
2013-09-20 13:17:00,77.4,75.5,29.74,SSE,165,0.0,0.0,94,0.05,CLR,,0.48,WeatherDisplay:10.37,2013-09-20 18:17:00,
2013-09-20 13:22:00,77.3,75.1,29.73,SSE,165,0.0,0.0,93,0.05,CLR,,0.48,WeatherDisplay:10.37,2013-09-20 18:22:00,
2013-09-20 13:27:00,77.3,75.1,29.73,SSE,165,0.0,0.0,93,0.05,CLR,,0.48,WeatherDisplay:10.37,2013-09-20 18:27:00,
2013-09-20 13:32:00,77.5,75.3,29.73,SSE,165,0.0,0.0,93,0.05,CLR,,0.48,WeatherDisplay:10.37,2013-09-20 18:32:00,
2013-09-20 13:37:00,77.5,75.3,29.73,SSE,165,0.0,0.0,93,0.05,CLR,,0.48,WeatherDisplay:10.37,2013-09-20 18:37:00,
2013-09-20 13:42:00,77.5,75.3,29.72,SSE,165,0.0,0.0,93,0.05,CLR,,0.48,WeatherDisplay:10.37,2013-09-20 18:42:00,
2013-09-20 13:47:00,77.6,75.4,29.72,SSE,164,0.0,0.0,93,0.04,CLR,,0.48,WeatherDisplay:10.37,2013-09-20 18:47:00,
2013-09-20 13:52:00,77.7,75.5,29.73,SSE,165,0.0,0.0,93,0.02,CLR,,0.48,WeatherDisplay:10.37,2013-09-20 18:52:00,
2013-09-20 13:57:00,77.7,75.5,29.73,SSE,165,0.0,0.0,93,0.01,CLR,,0.48,WeatherDisplay:10.37,2013-09-20 18:57:00,
2013-09-20 14:02:00,77.7,75.5,29.73,SSE,164,0.0,0.0,93,0.00,CLR,,0.48,WeatherDisplay:10.37,2013-09-20 19:02:00,
2013-09-20 14:07:00,77.7,75.5,29.73,SSE,165,0.0,0.0,93,0.00,CLR,,0.48,WeatherDisplay:10.37,2013-09-20 19:07:00,
2013-09-20 14:12:00,77.8,75.6,29.73,SSE,164,0.0,0.0,93,0.00,CLR,,0.48,WeatherDisplay:10.37,2013-09-20 19:12:00,
2013-09-20 14:17:00,77.9,75.7,29.72,SSE,164,0.0,0.0,93,0.00,CLR,,0.48,WeatherDisplay:10.37,2013-09-20 19:17:00,
2013-09-20 14:22:00,77.8,75.6,29.73,SSE,165,0.0,0.0,93,0.01,RA,,0.50,WeatherDisplay:10.37,2013-09-20 19:22:00,
2013-09-20 14:27:00,77.4,74.9,29.73,NW,326,11.5,11.5,92,0.07,RA,,0.55,WeatherDisplay:10.37,2013-09-20 19:27:00,
2013-09-20 14:32:00,76.6,74.1,29.72,NW,315,6.9,6.9,92,0.09,RA,,0.58,WeatherDisplay:10.37,2013-09-20 19:32:00,
2013-09-20 14:37:00,75.9,73.4,29.73,NW,311,11.5,11.5,92,0.10,RA,,0.59,WeatherDisplay:10.37,2013-09-20 19:37:00,
2013-09-20 14:42:00,75.3,72.8,29.73,NW,325,10.4,10.4,92,0.10,RA,,0.59,WeatherDisplay:10.37,2013-09-20 19:42:00,
2013-09-20 14:47:00,75.0,72.5,29.72,NNW,335,3.5,3.5,92,0.10,,,0.59,WeatherDisplay:10.37,2013-09-20 19:47:00,
2013-09-20 14:52:00,74.8,72.6,29.73,NW,322,5.8,5.8,93,0.10,CLR,,0.59,WeatherDisplay:10.37,2013-09-20 19:52:00,
2013-09-20 14:57:00,74.7,72.5,29.73,NW,326,4.6,4.6,93,0.10,CLR,,0.59,WeatherDisplay:10.37,2013-09-20 19:57:00,
2013-09-20 15:02:00,74.7,72.5,29.73,NNW,327,4.6,4.6,93,0.10,CLR,,0.59,WeatherDisplay:10.37,2013-09-20 20:02:00,
2013-09-20 15:07:00,74.7,72.5,29.72,NNW,341,12.7,12.7,93,0.10,CLR,,0.59,WeatherDisplay:10.37,2013-09-20 20:07:00,
2013-09-20 15:12:00,74.5,72.3,29.72,NNW,333,10.0,10.0,93,0.10,CLR,,0.59,WeatherDisplay:10.37,2013-09-20 20:12:00,
2013-09-20 15:17:00,74.4,72.2,29.72,NNW,346,9.0,9.0,93,0.10,CLR,,0.59,WeatherDisplay:10.37,2013-09-20 20:17:00,
2013-09-20 15:22:00,74.2,72.0,29.71,NNW,345,10.4,10.4,93,0.09,CLR,,0.59,WeatherDisplay:10.37,2013-09-20 20:22:00,
2013-09-20 15:27:00,74.1,71.9,29.72,North,355,12.0,12.0,93,0.03,CLR,,0.59,WeatherDisplay:10.37,2013-09-20 20:27:00,
2013-09-20 15:32:00,74.0,71.8,29.72,North,360,12.0,12.0,93,0.01,CLR,,0.59,WeatherDisplay:10.37,2013-09-20 20:32:00,
2013-09-20 15:37:00,73.8,71.6,29.72,NNW,342,3.5,3.5,93,0.01,RA,,0.60,WeatherDisplay:10.37,2013-09-20 20:37:00,
2013-09-20 15:42:00,73.7,71.5,29.72,North,355,9.0,9.0,93,0.01,RA,,0.60,WeatherDisplay:10.37,2013-09-20 20:42:00,
2013-09-20 15:47:00,73.6,71.4,29.73,North,355,12.0,12.0,93,0.01,,,0.60,WeatherDisplay:10.37,2013-09-20 20:47:00,
2013-09-20 15:52:00,73.6,71.4,29.73,NNW,348,13.8,13.8,93,0.01,CLR,,0.60,WeatherDisplay:10.37,2013-09-20 20:52:00,
2013-09-20 16:05:00,73.4,71.3,29.72,North,350,0.0,0.2,93,0.02,RA,,0.61,WeatherDisplay:10.37,2013-09-20 21:05:00,
2013-09-20 16:10:00,73.4,71.3,29.72,NNW,345,9.0,9.0,93,0.02,RA,,0.61,WeatherDisplay:10.37,2013-09-20 21:10:00,
2013-09-20 16:15:00,73.4,71.3,29.72,North,350,9.0,9.0,93,0.02,CLR,,0.61,WeatherDisplay:10.37,2013-09-20 21:15:00,
2013-09-20 16:20:00,73.4,71.3,29.72,NNW,340,11.5,12.1,93,0.02,CLR,,0.61,WeatherDisplay:10.37,2013-09-20 21:20:00,
2013-09-20 16:25:00,73.4,71.3,29.73,NNW,348,5.8,5.8,93,0.02,CLR,,0.61,WeatherDisplay:10.37,2013-09-20 21:25:00,
2013-09-20 16:30:00,73.4,71.3,29.73,North,355,11.5,11.5,93,0.02,CLR,,0.61,WeatherDisplay:10.37,2013-09-20 21:30:00,
2013-09-20 16:35:00,73.4,71.3,29.72,North,355,11.0,11.0,93,0.02,CLR,,0.61,WeatherDisplay:10.37,2013-09-20 21:35:00,
2013-09-20 16:40:00,73.4,71.3,29.72,North,349,11.5,11.5,93,0.01,CLR,,0.61,WeatherDisplay:10.37,2013-09-20 21:40:00,
2013-09-20 16:45:00,73.5,71.4,29.72,North,360,11.5,11.5,93,0.01,CLR,,0.61,WeatherDisplay:10.37,2013-09-20 21:45:00,
2013-09-20 16:50:00,73.5,71.4,29.73,North,355,12.7,12.7,93,0.01,CLR,,0.61,WeatherDisplay:10.37,2013-09-20 21:50:00,
2013-09-20 16:56:00,73.4,71.3,29.72,North,355,11.5,11.5,93,0.01,CLR,,0.61,WeatherDisplay:10.37,2013-09-20 21:56:00,
2013-09-20 17:01:00,73.3,71.2,29.72,North,355,13.8,13.8,93,0.00,CLR,,0.61,WeatherDisplay:10.37,2013-09-20 22:01:00,
2013-09-20 17:06:00,73.2,70.7,29.72,North,355,18.4,18.4,92,0.00,CLR,,0.61,WeatherDisplay:10.37,2013-09-20 22:06:00,
2013-09-20 17:11:00,73.2,70.7,29.71,North,360,11.5,11.5,92,0.00,CLR,,0.61,WeatherDisplay:10.37,2013-09-20 22:11:00,
2013-09-20 17:16:00,73.1,70.6,29.71,North,5,11.5,11.5,92,0.00,CLR,,0.61,WeatherDisplay:10.37,2013-09-20 22:16:00,
2013-09-20 17:21:00,73.0,70.5,29.72,North,5,11.5,11.5,92,0.00,CLR,,0.61,WeatherDisplay:10.37,2013-09-20 22:21:00,
2013-09-20 17:26:00,73.0,70.5,29.72,North,355,3.5,3.5,92,0.01,RA,,0.62,WeatherDisplay:10.37,2013-09-20 22:26:00,
2013-09-20 17:31:00,73.0,70.5,29.72,North,355,10.4,10.4,92,0.01,RA,,0.62,WeatherDisplay:10.37,2013-09-20 22:31:00,
2013-09-20 17:36:00,73.0,70.5,29.72,North,9,12.7,12.7,92,0.01,CLR,,0.62,WeatherDisplay:10.37,2013-09-20 22:36:00,
2013-09-20 17:41:00,73.0,70.5,29.72,North,360,12.7,12.7,92,0.01,CLR,,0.62,WeatherDisplay:10.37,2013-09-20 22:41:00,
2013-09-20 17:46:00,72.9,70.4,29.73,North,355,12.7,12.7,92,0.01,CLR,,0.62,WeatherDisplay:10.37,2013-09-20 22:46:00,
2013-09-20 17:51:00,72.9,70.4,29.73,NNW,340,11.5,11.5,92,0.01,CLR,,0.62,WeatherDisplay:10.37,2013-09-20 22:51:00,
2013-09-20 17:56:00,72.8,70.3,29.73,North,5,11.5,11.5,92,0.01,CLR,,0.62,WeatherDisplay:10.37,2013-09-20 22:56:00,
2013-09-20 18:01:00,72.8,70.3,29.73,North,355,6.9,6.9,92,0.01,CLR,,0.62,WeatherDisplay:10.37,2013-09-20 23:01:00,
2013-09-20 18:06:00,72.6,70.1,29.73,North,360,10.4,10.4,92,0.01,CLR,,0.62,WeatherDisplay:10.37,2013-09-20 23:06:00,
2013-09-20 18:11:00,72.5,70.0,29.74,North,5,12.0,12.0,92,0.01,CLR,,0.62,WeatherDisplay:10.37,2013-09-20 23:11:00,
2013-09-20 18:16:00,72.4,69.9,29.74,North,5,10.4,10.4,92,0.01,CLR,,0.62,WeatherDisplay:10.37,2013-09-20 23:16:00,
2013-09-20 18:21:00,72.2,69.7,29.74,North,360,13.0,13.0,92,0.01,CLR,,0.62,WeatherDisplay:10.37,2013-09-20 23:21:00,
2013-09-20 18:26:00,72.1,69.6,29.74,North,355,8.1,8.1,92,0.00,CLR,,0.62,WeatherDisplay:10.37,2013-09-20 23:26:00,
2013-09-20 18:31:00,72.0,69.2,29.74,NNE,14,5.8,0.0,91,0.00,CLR,,0.62,WeatherDisplay:10.37,2013-09-20 23:31:00,
2013-09-20 18:36:00,71.9,69.1,29.74,North,10,11.5,11.5,91,0.00,CLR,,0.62,WeatherDisplay:10.37,2013-09-20 23:36:00,
2013-09-20 18:41:00,71.8,69.0,29.74,NNE,16,12.0,12.0,91,0.00,CLR,,0.62,WeatherDisplay:10.37,2013-09-20 23:41:00,
2013-09-20 18:46:00,71.7,68.9,29.74,North,5,6.0,6.0,91,0.00,CLR,,0.62,WeatherDisplay:10.37,2013-09-20 23:46:00,
2013-09-20 18:51:00,71.7,68.9,29.75,NNE,12,9.2,9.2,91,0.00,CLR,,0.62,WeatherDisplay:10.37,2013-09-20 23:51:00,
2013-09-20 18:56:00,71.7,68.9,29.75,North,360,0.0,0.0,91,0.00,CLR,,0.62,WeatherDisplay:10.37,2013-09-20 23:56:00,
2013-09-20 19:01:00,71.6,68.8,29.75,NNE,13,10.4,10.4,91,0.00,CLR,,0.62,WeatherDisplay:10.37,2013-09-21 00:01:00,
2013-09-20 19:06:00,71.6,68.8,29.75,North,5,9.2,9.2,91,0.00,CLR,,0.62,WeatherDisplay:10.37,2013-09-21 00:06:00,
2013-09-20 19:11:00,71.5,68.7,29.75,North,9,9.2,9.2,91,0.00,CLR,,0.62,WeatherDisplay:10.37,2013-09-21 00:11:00,
2013-09-20 19:16:00,71.4,69.0,29.75,North,360,10.0,10.0,92,0.00,CLR,,0.62,WeatherDisplay:10.37,2013-09-21 00:16:00,
2013-09-20 19:21:00,71.4,69.0,29.76,North,360,0.0,0.0,92,0.00,CLR,,0.62,WeatherDisplay:10.37,2013-09-21 00:21:00,
2013-09-20 19:26:00,71.4,69.0,29.76,North,350,6.9,6.9,92,0.00,CLR,,0.62,WeatherDisplay:10.37,2013-09-21 00:26:00,
2013-09-20 19:31:00,71.3,68.9,29.76,North,5,0.0,0.0,92,0.00,CLR,,0.62,WeatherDisplay:10.37,2013-09-21 00:31:00,
2013-09-20 19:36:00,71.3,68.9,29.76,North,5,11.5,11.5,92,0.00,CLR,,0.62,WeatherDisplay:10.37,2013-09-21 00:36:00,
2013-09-20 19:41:00,71.3,68.9,29.76,North,351,14.0,14.0,92,0.00,CLR,,0.62,WeatherDisplay:10.37,2013-09-21 00:41:00,
2013-09-20 19:46:00,71.2,68.8,29.76,North,355,4.6,4.6,92,0.00,CLR,,0.62,WeatherDisplay:10.37,2013-09-21 00:46:00,
2013-09-20 19:51:00,71.2,68.8,29.76,North,355,5.8,5.8,92,0.00,CLR,,0.62,WeatherDisplay:10.37,2013-09-21 00:51:00,
2013-09-20 19:56:00,71.2,68.8,29.77,North,355,10.4,10.4,92,0.00,CLR,,0.62,WeatherDisplay:10.37,2013-09-21 00:56:00,
2013-09-20 20:01:00,71.1,68.7,29.77,North,355,9.2,9.2,92,0.00,CLR,,0.62,WeatherDisplay:10.37,2013-09-21 01:01:00,
2013-09-20 20:06:00,71.1,68.7,29.77,North,360,8.1,8.1,92,0.00,CLR,,0.62,WeatherDisplay:10.37,2013-09-21 01:06:00,
2013-09-20 20:11:00,71.1,68.7,29.77,North,5,11.5,11.5,92,0.00,CLR,,0.62,WeatherDisplay:10.37,2013-09-21 01:11:00,
2013-09-20 20:16:00,71.0,68.6,29.77,North,5,3.5,3.5,92,0.00,CLR,,0.62,WeatherDisplay:10.37,2013-09-21 01:16:00,
2013-09-20 20:21:00,71.0,68.6,29.77,North,360,4.6,4.6,92,0.01,RA,,0.63,WeatherDisplay:10.37,2013-09-21 01:21:00,
2013-09-20 20:26:00,70.9,68.5,29.77,North,360,5.8,5.8,92,0.01,RA,,0.63,WeatherDisplay:10.37,2013-09-21 01:26:00,
2013-09-20 20:31:00,70.9,68.5,29.76,NNE,13,3.5,3.5,92,0.01,,,0.63,WeatherDisplay:10.37,2013-09-21 01:31:00,
2013-09-20 20:36:00,70.8,68.4,29.77,NNE,15,3.5,3.5,92,0.01,CLR,,0.63,WeatherDisplay:10.37,2013-09-21 01:36:00,
2013-09-20 20:41:00,70.8,68.7,29.77,NNE,15,5.8,5.8,93,0.01,CLR,,0.63,WeatherDisplay:10.37,2013-09-21 01:41:00,
2013-09-20 20:46:00,70.8,68.7,29.77,NNE,15,9.2,9.2,93,0.01,CLR,,0.63,WeatherDisplay:10.37,2013-09-21 01:46:00,
2013-09-20 20:51:00,70.8,68.7,29.77,NNE,15,6.9,6.9,93,0.01,CLR,,0.63,WeatherDisplay:10.37,2013-09-21 01:51:00,
2013-09-20 20:56:00,70.8,68.7,29.77,NNE,14,6.0,6.0,93,0.01,CLR,,0.63,WeatherDisplay:10.37,2013-09-21 01:56:00,
2013-09-20 21:01:00,70.8,68.7,29.77,NNE,13,6.0,6.0,93,0.01,CLR,,0.63,WeatherDisplay:10.37,2013-09-21 02:01:00,
2013-09-20 21:06:00,70.8,68.7,29.77,NNE,13,0.0,0.0,93,0.01,CLR,,0.63,WeatherDisplay:10.37,2013-09-21 02:06:00,
2013-09-20 21:11:00,70.7,68.6,29.78,NNE,13,0.0,0.0,93,0.01,CLR,,0.63,WeatherDisplay:10.37,2013-09-21 02:11:00,
2013-09-20 21:16:00,70.7,68.6,29.78,NNE,15,4.6,4.6,93,0.01,CLR,,0.63,WeatherDisplay:10.37,2013-09-21 02:16:00,
2013-09-20 21:21:00,70.7,68.6,29.78,NNE,16,4.0,4.0,93,0.00,CLR,,0.63,WeatherDisplay:10.37,2013-09-21 02:21:00,
2013-09-20 21:26:00,70.6,68.5,29.79,NNE,14,0.0,0.0,93,0.00,CLR,,0.63,WeatherDisplay:10.37,2013-09-21 02:26:00,
2013-09-20 21:31:00,70.6,68.5,29.79,North,11,0.0,0.0,93,0.00,CLR,,0.63,WeatherDisplay:10.37,2013-09-21 02:31:00,
2013-09-20 21:36:00,70.6,68.5,29.79,North,360,10.4,10.4,93,0.00,CLR,,0.63,WeatherDisplay:10.37,2013-09-21 02:36:00,
2013-09-20 21:41:00,70.6,68.5,29.78,North,5,3.5,3.5,93,0.00,CLR,,0.63,WeatherDisplay:10.37,2013-09-21 02:41:00,
2013-09-20 21:46:00,70.5,68.4,29.78,North,5,1.2,0.0,93,0.00,CLR,,0.63,WeatherDisplay:10.37,2013-09-21 02:46:00,
2013-09-20 21:51:00,70.5,68.4,29.79,North,9,6.0,6.0,93,0.00,CLR,,0.63,WeatherDisplay:10.37,2013-09-21 02:51:00,
2013-09-20 21:56:00,70.5,68.4,29.78,North,5,5.8,5.8,93,0.00,CLR,,0.63,WeatherDisplay:10.37,2013-09-21 02:56:00,
2013-09-20 22:01:00,70.5,68.4,29.79,North,5,0.0,0.0,93,0.00,CLR,,0.63,WeatherDisplay:10.37,2013-09-21 03:01:00,
2013-09-20 22:06:00,70.5,68.4,29.79,North,5,0.0,0.0,93,0.00,CLR,,0.63,WeatherDisplay:10.37,2013-09-21 03:06:00,
2013-09-20 22:11:00,70.5,68.4,29.80,North,360,3.5,3.5,93,0.00,CLR,,0.63,WeatherDisplay:10.37,2013-09-21 03:11:00,
2013-09-20 22:16:00,70.5,68.4,29.80,North,360,5.8,5.8,93,0.00,CLR,,0.63,WeatherDisplay:10.37,2013-09-21 03:16:00,
2013-09-20 22:21:00,70.5,68.4,29.79,North,5,4.6,4.6,93,0.00,CLR,,0.63,WeatherDisplay:10.37,2013-09-21 03:21:00,
2013-09-20 22:26:00,70.4,68.3,29.79,North,5,10.4,10.4,93,0.00,CLR,,0.63,WeatherDisplay:10.37,2013-09-21 03:26:00,
2013-09-20 22:31:00,70.4,68.3,29.79,North,5,9.2,9.2,93,0.00,CLR,,0.63,WeatherDisplay:10.37,2013-09-21 03:31:00,
2013-09-20 22:36:00,70.3,68.2,29.79,North,5,6.9,6.9,93,0.00,CLR,,0.63,WeatherDisplay:10.37,2013-09-21 03:36:00,
2013-09-20 22:41:00,70.3,68.2,29.79,North,5,9.2,9.2,93,0.00,CLR,,0.63,WeatherDisplay:10.37,2013-09-21 03:41:00,
2013-09-20 22:46:00,70.3,68.2,29.79,North,360,0.0,0.0,93,0.00,CLR,,0.63,WeatherDisplay:10.37,2013-09-21 03:46:00,
2013-09-20 22:51:00,70.3,68.2,29.79,North,9,1.0,0.0,93,0.00,CLR,,0.63,WeatherDisplay:10.37,2013-09-21 03:51:00,
2013-09-20 22:56:00,70.4,68.3,29.80,North,360,9.2,9.2,93,0.00,CLR,,0.63,WeatherDisplay:10.37,2013-09-21 03:56:00,
2013-09-20 23:01:00,70.4,68.0,29.80,North,360,11.5,11.5,92,0.00,CLR,,0.63,WeatherDisplay:10.37,2013-09-21 04:01:00,
2013-09-20 23:03:00,70.3,67.9,29.80,North,360,0.0,0.0,92,0.00,CLR,,0.63,WeatherDisplay:10.37,2013-09-21 04:03:00,
2013-09-20 23:08:00,70.4,68.0,29.80,North,360,9.2,9.2,92,0.00,CLR,,0.63,WeatherDisplay:10.37,2013-09-21 04:08:00,
2013-09-20 23:13:00,70.4,68.0,29.80,North,360,3.5,3.5,92,0.00,CLR,,0.63,WeatherDisplay:10.37,2013-09-21 04:13:00,
2013-09-20 23:18:00,70.4,68.0,29.80,North,360,6.9,6.9,92,0.00,CLR,,0.63,WeatherDisplay:10.37,2013-09-21 04:18:00,
2013-09-20 23:23:00,70.5,68.1,29.79,North,360,1.2,1.2,92,0.00,CLR,,0.63,WeatherDisplay:10.37,2013-09-21 04:23:00,
2013-09-20 23:28:00,70.5,68.1,29.79,North,360,4.6,4.6,92,0.00,CLR,,0.63,WeatherDisplay:10.37,2013-09-21 04:28:00,
2013-09-20 23:33:00,70.5,68.1,29.80,North,360,9.0,10.0,92,0.00,CLR,,0.63,WeatherDisplay:10.37,2013-09-21 04:33:00,
2013-09-20 23:38:00,70.5,68.1,29.80,North,5,6.9,6.9,92,0.00,CLR,,0.63,WeatherDisplay:10.37,2013-09-21 04:38:00,
2013-09-20 23:43:00,70.5,68.4,29.79,North,5,4.6,4.6,93,0.00,CLR,,0.63,WeatherDisplay:10.37,2013-09-21 04:43:00,
2013-09-20 23:48:00,70.5,68.1,29.79,North,9,5.0,5.0,92,0.00,CLR,,0.63,WeatherDisplay:10.37,2013-09-21 04:48:00,
2013-09-20 23:53:00,70.5,68.1,29.80,North,360,9.2,9.2,92,0.00,CLR,,0.63,WeatherDisplay:10.37,2013-09-21 04:53:00,
2013-09-20 23:58:00,70.5,68.1,29.80,North,360,6.9,6.9,92,0.00,CLR,,0.63,WeatherDisplay:10.37,2013-09-21 04:58:00,